EW4496 Weather Reports


time (UTC)temp
C
wind
direction
speed
KPH
gust
KPH
rain 1hr
cm
rain 24hr
cm
rain mn
cm
humidity
%
barometer
mb
20260905024602 21 295 0.0 0.0 0.00 0.05 0.05 38 1012.0
20260905023055 22 295 0.0 0.0 0.00 0.05 0.05 35 1012.0
20260905021552 23 312 0.0 3.2 0.00 0.05 0.05 31 1012.0
20260905020104 25 354 0.0 1.6 0.00 0.05 0.05 29 1012.0
20260905014553 25 336 0.0 6.4 0.00 0.05 0.05 29 1012.0
20260905013021 25 244 0.0 11.3 0.00 0.05 0.05 31 1011.9
20260905011521 25 300 0.0 14.5 0.00 0.05 0.05 33 1011.8
20260905010024 25 329 0.0 8.0 0.00 0.05 0.05 36 1011.9
20260905004524 25 347 3.2 9.7 0.00 0.05 0.05 36 1011.8
20260905003021 26 255 0.0 12.9 0.00 0.05 0.05 37 1011.8
20260905001521 26 221 1.6 12.9 0.00 0.05 0.05 36 1011.8
20260905000021 26 297 0.0 6.4 0.00 0.05 0.05 36 1011.9
20260904234521 26 200 1.6 9.7 0.00 0.05 0.05 38 1012.0
20260904233021 26 311 0.0 9.7 0.00 0.05 0.05 38 1012.1
20260904231532 26 1 4.8 11.3 0.00 0.05 0.05 38 1012.1
20260904230023 26 262 4.8 12.9 0.00 0.05 0.05 39 1012.2
20260904224520 26 5 3.2 12.9 0.00 0.05 0.05 38 1012.4
20260904223005 26 302 0.0 14.5 0.00 0.05 0.05 39 1012.5
20260904221505 25 22 0.0 8.0 0.00 0.05 0.05 41 1012.4
20260904220021 25 1 1.6 17.7 0.00 0.05 0.05 42 1012.5
20260904214532 25 326 3.2 9.7 0.00 0.05 0.05 40 1012.5
20260904213005 25 168 8.0 17.7 0.00 0.05 0.05 41 1012.5
20260904211506 25 338 0.0 8.0 0.00 0.05 0.05 42 1012.6
20260904210043 25 330 0.0 14.5 0.00 0.05 0.05 42 1012.6
20260904180104 20 185 3.2 11.3 0.00 0.05 0.05 68 1013.5
20260904174604 19 158 4.8 11.3 0.00 0.05 0.05 70 1013.6
20260904173128 18 195 0.0 9.7 0.03 0.05 0.05 76 1013.6
20260904171611 18 195 0.0 6.4 0.03 0.05 0.05 78 1013.4
20260904170108 18 276 0.0 9.7 0.03 0.05 0.05 78 1013.3
20260904164504 17 200 1.6 8.0 0.00 0.03 0.03 80 1013.2
20260904163018 16 148 0.0 4.8 0.00 0.03 0.03 85 1013.2
20260904161605 16 229 0.0 4.8 0.00 0.03 0.03 87 1013.1
20260904160106 15 266 0.0 6.4 0.00 0.03 0.03 88 1013.1
20260904154603 15 335 0.0 1.6 0.00 0.03 0.03 89 1013.0
20260904153103 15 290 1.6 9.7 0.00 0.03 0.03 89 1012.9
20260904151503 15 247 0.0 8.0 0.00 0.03 0.03 90 1012.9
20260904150011 15 353 0.0 4.8 0.00 0.03 0.03 90 1012.9
20260904144504 15 285 0.0 6.4 0.00 0.03 0.03 91 1012.7
20260904143003 15 297 0.0 6.4 0.00 0.03 0.03 91 1012.4
20260904141503 15 282 0.0 4.8 0.00 0.03 0.03 91 1012.2
20260904140003 15 252 1.6 6.4 0.00 0.03 0.03 91 1012.0
20260904134510 15 240 0.0 3.2 0.00 0.03 0.03 91 1011.8
20260904133048 15 251 0.0 0.0 0.00 0.03 0.03 91 1011.7
20260904131521 15 276 0.0 1.6 0.00 0.03 0.03 91 1011.7
20260904130030 15 247 1.6 0.0 0.00 0.00 0.03 90 1011.5
20260904124528 15 267 0.0 6.4 0.00 0.03 0.03 90 1011.5
20260904123032 16 259 0.0 8.0 0.00 0.03 0.03 90 1011.4
20260904121543 16 295 0.0 11.3 0.00 0.03 0.03 90 1011.2
20260904120050 16 241 0.0 4.8 0.00 0.03 0.03 91 1011.2
20260904114548 16 244 0.0 4.8 0.00 0.03 0.03 91 1011.2
20260904113050 16 298 0.0 4.8 0.00 0.03 0.03 91 1011.1
20260904111547 16 243 0.0 1.6 0.00 0.03 0.03 91 1011.1
20260904110047 16 256 0.0 3.2 0.00 0.03 0.03 91 1011.0
20260904104549 16 248 0.0 4.8 0.00 0.03 0.03 91 1010.9
20260904103047 16 270 0.0 3.2 0.00 0.03 0.03 92 1010.9
20260904101546 16 309 0.0 1.6 0.00 0.03 0.03 92 1010.8
20260904100050 16 310 0.0 0.0 0.00 0.03 0.03 92 1010.7
20260904094554 16 266 0.0 1.6 0.00 0.03 0.03 92 1010.8
20260904093051 16 341 0.0 1.6 0.00 0.03 0.03 92 1010.6
20260904091547 16 300 0.0 4.8 0.00 0.03 0.03 92 1010.6
20260904090047 16 310 0.0 4.8 0.00 0.03 0.03 92 1010.7
20260904084547 16 347 0.0 4.8 0.03 0.03 0.03 92 1010.7
20260904083048 16 354 0.0 6.4 0.03 0.03 0.03 91 1010.8
20260904081547 16 293 0.0 6.4 0.03 0.03 0.03 90 1010.7
20260904080046 17 221 1.6 6.4 0.03 0.03 0.03 88 1010.7
20260904074546 17 324 0.0 4.8 0.00 0.00 0.00 85 1010.9
20260904073049 18 317 0.0 4.8 0.00 0.00 0.00 80 1011.0
20260904071517 18 326 0.0 9.7 0.00 0.00 0.00 79 1010.9
20260904070041 18 342 0.0 8.0 0.00 0.00 0.00 78 1010.9
20260904064541 18 9 0.0 4.8 0.00 0.00 0.00 77 1010.8
20260904063041 18 264 0.0 6.4 0.00 0.00 0.00 77 1010.7
20260904061542 18 274 1.6 8.0 0.00 0.00 0.00 77 1010.8
20260904060056 19 294 0.0 8.0 0.00 0.00 0.00 77 1010.8
20260904054555 19 311 0.0 9.7 0.00 0.00 0.00 77 1010.8
20260904053055 19 328 1.6 11.3 0.00 0.00 0.00 77 1010.8
20260904051605 19 323 0.0 4.8 0.00 0.00 0.00 78 1011.0
20260904050057 19 316 0.0 6.4 0.00 0.00 0.00 77 1010.9
20260904044555 19 262 0.0 3.2 0.00 0.00 0.00 77 1010.8
20260904043111 19 256 0.0 4.8 0.00 0.00 0.00 77 1010.9
20260904041609 19 262 0.0 4.8 0.00 0.00 0.00 77 1010.9
20260904040110 19 321 0.0 0.0 0.00 0.00 0.00 77 1010.9
20260904034513 20 307 0.0 1.6 0.00 0.00 0.00 76 1010.8
20260904033010 20 304 0.0 3.2 0.00 0.00 0.00 76 1010.7
20260904031510 20 345 0.0 1.6 0.00 0.00 0.00 75 1010.5
20260904030010 20 7 0.0 3.2 0.00 0.00 0.00 74 1010.4